SCP
0 0 0 0 0 0 0 0 0 0 0 0 0 0 0 0 0 0 0 0 0 0 0 0 0 0 0 0 0 0 0 0 0 0 0 0 0 0
0 0 0 0 0 0 0 0 0 0 0 0 0 0 0 0 0 0 0 0 0 0 0 0 0 0 0 0 0 0 0 0 0 0 0 0 0 0
0 0 0 0 0 0 0 0 0 0 0 0 0 0 0 0 0 0 0 0 0 0 0 0 0 0 0 0 0 0 0 0 0 0 0 0 0 0
0 0 0 0 0 0 0 0 0 0 0 0 0 0 0 0 0 0 0 0 0 0 0 0 0 0 0 0 0 0 0 0 0 0 0 0 0 0
0 0 0 0 0 0 0 0 0 0 0 0 0 0 0 0 0 0 0 0 0 0 0 0 0 0 0 0 0 0 0 0 0 0 0 0 0 -0
0 0 0 0 0 0 0 0 0 0 0 0 0 0 0 0 0 0 0 0 0 0 0 0 0 0 0 0 0 0 0 0 0 0 0 0 -0 -0
0 0 0 0 0 0 0 0 0 0 0 0 0 0 0 0 0 0 0 0 0 0 0 0 0 0 0 0 0 0 0 0 0 0 0 -0 0 -0
0 0 0 0 0 0 0 0 0 0 0 0 0 0 0 0 0 0 0 0 0 0 0 0 0 0 0 0 0 0 0 0 0 0 0 -0 -0 -0
0 0 0 0 0 0 0 0 0 0 0 0 0 0 0 0 0 0 0 0 0 0 0 0 0 0 0 0 0 0 0 0 -0 -0 -0 -0 -0 -0
0 0 0 0 0 0 0 0 0 0 0 0 0 0 0 0 0 0 0 0 0 0 0 0 0 0 0 0 0 0 0 0 -0 -0 0 -0 -0 -0
0 0 0 0 0 0 0 0 0 0 0 0 0 0 0 0 0 0 0 0 0 0 0 0 0 0 0 0 0 0 0 0 0 -0 -0 -0 -0 -0
0 0 0 0 0 0 0 0 0 0 0 0 0 0 0 0 0 0 0 0 0 0 0 0 0 0 0 0 0 0 0 0 0 -0 -0 -0 -0 -0
0 0 0 0 0 0 0 0 0 0 0 0 0 0 0 0 0 0 0 0 0 0 0 0 0 0 0 0 0 0 0 0 0 0 -0 -0 -0 -0
0 0 0 0 0 0 0 0 0 0 0 0 0 0 0 0 0 0 0 0 0 0 0 0 0 0 0 0 0 0 0 0 0 0 -0 -0 -0 0
0 0 0 0 0 0 0 0 0 0 0 0 0 0 0 0 0 0 0 0 0 0 0 0 0 0 0 0 0 0 0 0 0 0 0 -0 0 0
0 0 0 0 0 0 0 0 0 0 0 0 0 0 0 0 0 0 0 0 0 0 0 0 0 0 0 0 0 0 0 0 0 0 -0 0 0 0
0 0 0 0 0 0 0 0 0 0 0 0 0 0 0 0 0 0 0 0 0 0 0 0 0 0 0 0 0 0 0 0 0 0 0 0 0 0
0 0 0 0 0 0 0 0 0 0 0 0 0 0 0 0 0 0 0 0 0 0 0 0 0 0 0 0 0 0 0 0 0 0 0 0 0 0
0 0 0 0 0 0 0 0 0 0 0 0 0 0 0 0 0 0 0 0 0 0 0 0 0 0 0 0 -0 -0 0 0 -0 -0 0 0 0 0
0 0 0 0 0 0 0 0 0 0 0 0 0 0 0 0 0 0 0 0 0 0 0 0 0 0 -0 -0 -0 0 -0 -0 -0 -0 0 0 0 0
0 0 0 0 0 0 0 0 0 0 0 0 0 0 0 0 0 0 0 0 0 0 0 0 0 0 0 -0 -0 -0 -0 -0 -0 -0 0 0 0 0
0 0 0 0 0 0 0 0 0 0 0 0 0 0 0 0 0 0 0 0 0 0 0 0 0 0 0 -0 0 0 -0 -0 -0 -0 -0 0 0 0
0 0 0 0 0 0 0 0 0 0 0 0 0 0 0 0 0 0 0 0 0 0 0 0 0 0 0 0 0 0 -0 -0 -0 -0 0 0 0 0
Wind_Speed_500mb
58 51 45 38 29 19 14 12 14 18 36 34 35 46 53 56 58 58 59 58 58 55 56 60 55 59 63 66 66 66 67 62 64 58 58 54 56 58
53 46 38 28 19 12 8 15 19 24 27 37 44 47 50 54 56 55 54 55 53 50 57 60 56 60 61 61 60 60 65 64 69 69 62 56 56 55
48 36 29 21 14 8 8 12 28 32 36 42 43 45 50 55 55 53 55 56 53 55 59 58 57 61 61 61 60 60 58 58 58 59 55 60 57 59
47 39 30 21 15 10 9 14 31 34 38 42 45 48 51 53 56 58 57 55 58 63 57 57 60 58 54 53 54 48 47 48 49 49 52 54 59 64
35 35 31 22 18 7 12 15 29 34 36 39 44 48 51 54 57 57 59 62 65 58 57 62 60 54 54 55 53 49 49 48 44 47 53 56 54 56
52 37 29 25 11 11 14 18 25 31 33 35 39 44 49 52 56 62 65 66 73 60 63 64 59 54 56 54 50 48 44 44 46 48 52 58 62 64
50 40 33 16 23 16 21 18 26 28 29 32 35 42 47 54 59 62 66 71 76 69 78 70 72 68 66 58 45 34 42 53 54 59 65 68 67 66
53 44 32 23 17 16 20 22 26 26 26 28 32 40 43 49 55 60 64 72 76 71 81 75 70 75 76 55 36 55 56 55 57 62 62 57 55 53
52 39 28 38 25 29 21 20 23 25 24 26 30 34 42 45 51 56 59 63 64 71 67 81 80 84 77 41 63 62 61 64 59 57 53 48 43 41
41 41 47 33 29 24 20 19 19 20 20 23 26 29 34 36 43 50 55 58 64 66 48 76 83 88 73 48 73 63 70 56 58 53 48 43 38 35
49 44 37 31 26 22 19 18 16 15 18 20 22 26 29 28 36 46 54 61 69 70 50 75 86 88 76 55 77 70 71 59 59 54 44 38 39 35
52 45 37 32 25 19 18 14 10 12 12 12 18 20 25 25 31 40 47 54 57 51 53 74 72 81 50 63 83 81 74 66 66 60 49 32 20 26
51 45 37 30 22 18 16 12 9 7 9 14 18 19 19 22 28 35 40 45 47 47 52 58 73 77 64 85 90 84 77 72 75 67 54 25 9 15
50 42 34 25 19 14 12 9 7 5 10 14 15 16 20 24 30 34 36 34 34 42 49 48 60 66 71 80 79 90 75 65 65 52 41 24 16 9
45 37 29 23 17 11 11 8 5 4 8 12 15 18 21 26 29 30 31 34 32 34 38 44 52 60 58 66 67 77 82 63 57 53 50 44 38 54
49 39 30 23 16 11 9 6 2 3 7 12 15 18 21 22 28 34 38 41 41 38 37 43 46 47 48 54 60 64 58 60 52 49 49 50 62 78
46 39 32 24 18 14 10 4 0 3 8 13 16 18 21 23 26 30 35 39 45 50 50 51 47 39 28 53 64 57 52 49 52 55 58 65 72 67
44 37 31 24 18 15 10 5 0 4 6 13 16 19 22 25 25 27 31 35 42 45 45 49 50 45 21 54 59 51 48 51 56 62 67 72 84 89
41 34 28 24 19 16 12 6 4 5 7 12 16 18 20 22 23 27 29 31 34 37 38 42 48 51 52 51 58 49 50 57 68 69 71 76 90 92
36 32 27 22 18 16 13 12 9 10 10 12 16 19 20 21 23 25 25 29 33 31 31 35 41 41 46 52 53 54 47 57 75 82 82 82 85 83
35 30 24 19 17 17 19 17 16 16 16 14 16 19 20 20 21 22 21 24 27 25 26 30 33 35 29 37 49 48 49 51 62 76 84 97 100 96
29 26 23 21 19 22 22 21 22 22 22 20 19 20 20 21 19 18 19 20 22 18 19 24 23 21 19 32 48 45 42 40 46 61 65 72 68 82
30 26 24 24 24 25 26 24 25 27 26 23 22 20 18 19 21 16 15 15 14 12 12 18 16 12 18 22 29 41 33 31 33 41 55 62 74 75
Wind_Direction_500mb
227 228 229 229 238 247 260 282 293 303 305 311 311 317 316 317 320 321 322 321 319 320 313 309 317 305 302 300 301 299 295 293 291 291 289 289 290 285
223 225 223 229 224 221 247 295 304 294 287 303 312 313 316 319 321 324 321 324 326 326 318 329 322 316 317 312 305 300 296 293 289 290 294 293 285 280
211 212 215 206 199 227 283 320 308 296 294 304 310 315 321 324 325 328 334 335 338 337 331 340 333 331 323 318 306 299 299 295 291 289 290 287 280 279
202 201 197 189 234 260 321 337 296 294 300 307 314 322 326 326 332 338 337 338 341 342 347 340 338 333 331 328 326 317 306 302 301 299 295 291 284 278
204 192 192 215 229 253 292 301 282 292 302 310 317 323 325 330 336 335 338 343 345 348 348 346 340 337 333 328 321 312 303 295 298 293 293 296 293 288
199 201 217 220 233 270 266 263 278 290 300 309 316 321 328 337 338 340 342 345 346 350 346 349 340 341 336 328 323 319 311 307 309 304 299 293 288 285
204 204 216 227 250 228 243 269 277 286 297 307 318 326 336 337 340 341 338 343 348 354 342 349 341 344 344 340 338 344 331 316 308 301 298 295 293 287
198 204 208 222 206 231 253 267 277 286 298 311 327 331 339 336 340 340 340 341 347 350 340 341 344 345 347 349 353 335 333 326 317 314 306 302 299 295
197 204 216 230 184 230 248 265 280 295 309 322 330 333 333 339 337 334 336 337 341 348 340 337 350 344 351 356 352 347 341 329 318 317 310 306 299 293
204 217 216 176 206 226 243 259 272 289 301 315 329 332 332 336 333 329 329 333 345 354 343 338 349 345 348 355 357 353 347 339 330 324 313 305 297 293
201 193 173 188 208 222 239 250 273 288 302 319 333 340 341 333 325 330 338 345 347 352 354 341 345 339 349 350 355 358 353 343 341 335 321 299 287 278
183 173 172 196 204 224 236 247 266 287 299 316 328 337 337 333 332 340 343 349 352 350 347 337 343 352 335 342 356 2 355 350 350 343 334 327 293 253
171 168 183 196 201 216 238 248 271 309 329 347 344 343 339 336 342 346 349 353 352 343 342 338 342 346 341 334 354 2 3 356 353 348 347 343 285 234
168 174 185 193 201 210 237 251 282 336 348 343 337 343 347 350 353 355 351 352 351 341 344 341 339 342 339 343 349 360 10 5 2 11 38 50 90 145
171 174 182 189 192 199 226 246 264 329 345 337 347 355 355 352 350 354 355 357 5 359 349 352 350 344 343 349 355 6 0 12 17 33 60 87 105 123
175 174 178 179 176 184 207 227 257 338 340 343 347 351 353 355 356 355 0 360 358 2 1 3 355 347 346 2 14 13 16 20 31 53 72 104 116 122
174 177 179 177 174 178 190 188 166 2 346 328 336 349 353 359 2 0 5 2 4 3 2 5 7 1 9 23 25 26 35 35 48 65 89 98 100 107
175 181 179 181 185 189 193 187 323 8 337 331 340 351 357 360 360 7 11 6 4 4 6 5 10 21 41 39 35 37 49 62 67 81 93 100 102 114
178 183 188 187 193 203 208 216 277 330 341 339 346 351 354 355 356 8 7 359 3 5 11 6 12 23 40 48 49 46 61 74 77 83 93 103 108 111
181 189 193 194 205 219 230 243 264 295 317 333 343 346 348 351 358 6 2 359 360 5 17 13 17 27 43 58 57 54 66 87 91 93 96 107 111 120
184 192 196 210 221 236 246 255 262 272 288 306 321 329 335 343 352 354 349 356 1 4 20 18 21 34 43 69 74 68 68 82 94 103 110 115 116 116
197 198 211 223 237 251 260 264 261 263 272 284 298 309 324 336 342 338 338 347 5 5 23 22 20 35 43 57 80 80 82 83 97 111 109 114 116 115
207 215 224 234 247 256 263 271 262 259 263 269 278 287 306 323 333 319 320 332 358 6 8 22 26 32 63 65 79 91 95 97 104 107 97 113 118 121
Wind_Speed_850mb
58 51 45 38 29 19 14 12 14 18 36 34 35 46 53 56 58 58 59 58 58 55 56 60 55 59 63 66 66 66 67 62 64 58 58 54 56 58
53 46 38 28 19 12 8 15 19 24 27 37 44 47 50 54 56 55 54 55 53 50 57 60 56 60 61 61 60 60 65 64 69 69 62 56 56 55
48 36 29 21 14 8 8 12 28 32 36 42 43 45 50 55 55 53 55 56 53 55 59 58 57 61 61 61 60 60 58 58 58 59 55 60 57 59
47 39 30 21 15 10 9 14 31 34 38 42 45 48 51 53 56 58 57 55 58 63 57 57 60 58 54 53 54 48 47 48 49 49 52 54 59 64
35 35 31 22 18 7 12 15 29 34 36 39 44 48 51 54 57 57 59 62 65 58 57 62 60 54 54 55 53 49 49 48 44 47 53 56 54 56
52 37 29 25 11 11 14 18 25 31 33 35 39 44 49 52 56 62 65 66 73 60 63 64 59 54 56 54 50 48 44 44 46 48 52 58 62 64
50 40 33 16 23 16 21 18 26 28 29 32 35 42 47 54 59 62 66 71 76 69 78 70 72 68 66 58 45 34 42 53 54 59 65 68 67 66
53 44 32 23 17 16 20 22 26 26 26 28 32 40 43 49 55 60 64 72 76 71 81 75 70 75 76 55 36 55 56 55 57 62 62 57 55 53
52 39 28 38 25 29 21 20 23 25 24 26 30 34 42 45 51 56 59 63 64 71 67 81 80 84 77 41 63 62 61 64 59 57 53 48 43 41
41 41 47 33 29 24 20 19 19 20 20 23 26 29 34 36 43 50 55 58 64 66 48 76 83 88 73 48 73 63 70 56 58 53 48 43 38 35
49 44 37 31 26 22 19 18 16 15 18 20 22 26 29 28 36 46 54 61 69 70 50 75 86 88 76 55 77 70 71 59 59 54 44 38 39 35
52 45 37 32 25 19 18 14 10 12 12 12 18 20 25 25 31 40 47 54 57 51 53 74 72 81 50 63 83 81 74 66 66 60 49 32 20 26
51 45 37 30 22 18 16 12 9 7 9 14 18 19 19 22 28 35 40 45 47 47 52 58 73 77 64 85 90 84 77 72 75 67 54 25 9 15
50 42 34 25 19 14 12 9 7 5 10 14 15 16 20 24 30 34 36 34 34 42 49 48 60 66 71 80 79 90 75 65 65 52 41 24 16 9
45 37 29 23 17 11 11 8 5 4 8 12 15 18 21 26 29 30 31 34 32 34 38 44 52 60 58 66 67 77 82 63 57 53 50 44 38 54
49 39 30 23 16 11 9 6 2 3 7 12 15 18 21 22 28 34 38 41 41 38 37 43 46 47 48 54 60 64 58 60 52 49 49 50 62 78
46 39 32 24 18 14 10 4 0 3 8 13 16 18 21 23 26 30 35 39 45 50 50 51 47 39 28 53 64 57 52 49 52 55 58 65 72 67
44 37 31 24 18 15 10 5 0 4 6 13 16 19 22 25 25 27 31 35 42 45 45 49 50 45 21 54 59 51 48 51 56 62 67 72 84 89
41 34 28 24 19 16 12 6 4 5 7 12 16 18 20 22 23 27 29 31 34 37 38 42 48 51 52 51 58 49 50 57 68 69 71 76 90 92
36 32 27 22 18 16 13 12 9 10 10 12 16 19 20 21 23 25 25 29 33 31 31 35 41 41 46 52 53 54 47 57 75 82 82 82 85 83
35 30 24 19 17 17 19 17 16 16 16 14 16 19 20 20 21 22 21 24 27 25 26 30 33 35 29 37 49 48 49 51 62 76 84 97 100 96
29 26 23 21 19 22 22 21 22 22 22 20 19 20 20 21 19 18 19 20 22 18 19 24 23 21 19 32 48 45 42 40 46 61 65 72 68 82
30 26 24 24 24 25 26 24 25 27 26 23 22 20 18 19 21 16 15 15 14 12 12 18 16 12 18 22 29 41 33 31 33 41 55 62 74 75
Wind_Direction_850mb
227 228 229 229 238 247 260 282 293 303 305 311 311 317 316 317 320 321 322 321 319 320 313 309 317 305 302 300 301 299 295 293 291 291 289 289 290 285
223 225 223 229 224 221 247 295 304 294 287 303 312 313 316 319 321 324 321 324 326 326 318 329 322 316 317 312 305 300 296 293 289 290 294 293 285 280
211 212 215 206 199 227 283 320 308 296 294 304 310 315 321 324 325 328 334 335 338 337 331 340 333 331 323 318 306 299 299 295 291 289 290 287 280 279
202 201 197 189 234 260 321 337 296 294 300 307 314 322 326 326 332 338 337 338 341 342 347 340 338 333 331 328 326 317 306 302 301 299 295 291 284 278
204 192 192 215 229 253 292 301 282 292 302 310 317 323 325 330 336 335 338 343 345 348 348 346 340 337 333 328 321 312 303 295 298 293 293 296 293 288
199 201 217 220 233 270 266 263 278 290 300 309 316 321 328 337 338 340 342 345 346 350 346 349 340 341 336 328 323 319 311 307 309 304 299 293 288 285
204 204 216 227 250 228 243 269 277 286 297 307 318 326 336 337 340 341 338 343 348 354 342 349 341 344 344 340 338 344 331 316 308 301 298 295 293 287
198 204 208 222 206 231 253 267 277 286 298 311 327 331 339 336 340 340 340 341 347 350 340 341 344 345 347 349 353 335 333 326 317 314 306 302 299 295
197 204 216 230 184 230 248 265 280 295 309 322 330 333 333 339 337 334 336 337 341 348 340 337 350 344 351 356 352 347 341 329 318 317 310 306 299 293
204 217 216 176 206 226 243 259 272 289 301 315 329 332 332 336 333 329 329 333 345 354 343 338 349 345 348 355 357 353 347 339 330 324 313 305 297 293
201 193 173 188 208 222 239 250 273 288 302 319 333 340 341 333 325 330 338 345 347 352 354 341 345 339 349 350 355 358 353 343 341 335 321 299 287 278
183 173 172 196 204 224 236 247 266 287 299 316 328 337 337 333 332 340 343 349 352 350 347 337 343 352 335 342 356 2 355 350 350 343 334 327 293 253
171 168 183 196 201 216 238 248 271 309 329 347 344 343 339 336 342 346 349 353 352 343 342 338 342 346 341 334 354 2 3 356 353 348 347 343 285 234
168 174 185 193 201 210 237 251 282 336 348 343 337 343 347 350 353 355 351 352 351 341 344 341 339 342 339 343 349 360 10 5 2 11 38 50 90 145
171 174 182 189 192 199 226 246 264 329 345 337 347 355 355 352 350 354 355 357 5 359 349 352 350 344 343 349 355 6 0 12 17 33 60 87 105 123
175 174 178 179 176 184 207 227 257 338 340 343 347 351 353 355 356 355 0 360 358 2 1 3 355 347 346 2 14 13 16 20 31 53 72 104 116 122
174 177 179 177 174 178 190 188 166 2 346 328 336 349 353 359 2 0 5 2 4 3 2 5 7 1 9 23 25 26 35 35 48 65 89 98 100 107
175 181 179 181 185 189 193 187 323 8 337 331 340 351 357 360 360 7 11 6 4 4 6 5 10 21 41 39 35 37 49 62 67 81 93 100 102 114
178 183 188 187 193 203 208 216 277 330 341 339 346 351 354 355 356 8 7 359 3 5 11 6 12 23 40 48 49 46 61 74 77 83 93 103 108 111
181 189 193 194 205 219 230 243 264 295 317 333 343 346 348 351 358 6 2 359 360 5 17 13 17 27 43 58 57 54 66 87 91 93 96 107 111 120
184 192 196 210 221 236 246 255 262 272 288 306 321 329 335 343 352 354 349 356 1 4 20 18 21 34 43 69 74 68 68 82 94 103 110 115 116 116
197 198 211 223 237 251 260 264 261 263 272 284 298 309 324 336 342 338 338 347 5 5 23 22 20 35 43 57 80 80 82 83 97 111 109 114 116 115
207 215 224 234 247 256 263 271 262 259 263 269 278 287 306 323 333 319 320 332 358 6 8 22 26 32 63 65 79 91 95 97 104 107 97 113 118 121